Location: Newark
(48.9320°N, 2.2664°E)
Time: 01:00:59
(UTC+00:00)

Vanguard 1 Rocket - Pass Details

Date: 20 February 2020
Orbit: 650 x 4226 km, 34.3° (Epoch: 01 April)

Event Time Altitude Azimuth Distance (km) Brightness Sun altitude
Rises 05:42:38 0° 245° (WSW) 3,186 - -12.0°
Exits shadow 05:44:58 - 230° (SW) 2,423 9.2 -11.6°
Reaches altitude 10° 05:46:25 10° 215° (SW) 2,072 8.9 -11.3°
Maximum altitude 05:48:23 13° 188° (S) 1,871 9.0 -11.0°
Drops below altitude 10° 05:50:20 10° 161° (SSE) 2,062 9.6 -10.7°
Sets 05:54:05 0° 132° (SE) 3,157 11.1 -10.1°
